EDT,Max TemperatureF,Mean TemperatureF,Min TemperatureF,Max Dew PointF,MeanDew PointF,Min DewpointF,Max Humidity, Mean Humidity, Min Humidity, Max Sea Level PressureIn, Mean Sea Level PressureIn, Min Sea Level PressureIn, Max VisibilityMiles, Mean VisibilityMiles, Min VisibilityMiles, Max Wind SpeedMPH, Mean Wind SpeedMPH, Max Gust SpeedMPH,PrecipitationIn, CloudCover, Events, WindDirDegrees
2013-9-1,92,82,72,75,72,68,95,82,50,29.94,29.89,29.82,10,9,2,21,7,25,0.20,4,Rain-Thunderstorm,221
2013-9-2,90,82,73,75,73,70,100,82,57,29.92,29.87,29.82,10,9,6,12,6,17,0.00,2,Thunderstorm,214
2013-9-3,90,80,70,74,72,69,95,80,60,29.95,29.87,29.84,10,10,5,9,6,,0.00,2,,226
2013-9-4,93,81,70,72,70,66,95,72,46,30.07,30.01,29.94,10,10,9,8,4,,0.00,1,,347
2013-9-5,91,81,71,74,69,65,95,70,42,30.10,30.06,30.02,10,10,7,8,5,,0.00,2,,6
2013-9-6,87,76,66,68,64,60,89,68,46,30.13,30.08,30.04,10,10,10,13,6,17,0.00,1,,37
2013-9-7,86,75,64,67,63,61,93,70,44,30.11,30.05,29.98,10,10,10,8,6,,0.00,1,,8
2013-9-8,90,78,66,68,66,62,94,70,42,29.99,29.95,29.90,10,10,10,8,3,,0.00,1,,276
2013-9-9,92,78,66,70,66,62,89,69,41,30.13,30.05,29.97,10,10,10,7,3,,0.00,1,,104
2013-9-10,92,78,66,71,67,64,96,74,42,30.23,30.18,30.14,10,10,6,9,3,,0.00,0,,64
2013-9-11,91,77,64,72,66,62,95,75,41,30.21,30.16,30.08,10,10,6,9,2,,0.00,1,,146
2013-9-12,91,80,69,70,67,65,90,67,42,30.08,29.97,29.86,10,10,10,14,6,,0.00,1,,228
2013-9-13,90,80,71,69,64,58,88,62,39,29.85,29.80,29.75,10,10,9,13,7,,0.00,1,,311
2013-9-14,81,72,63,61,55,50,70,55,45,30.08,29.97,29.85,10,10,10,16,10,23,0.00,4,,37
2013-9-15,88,74,61,71,66,58,92,71,50,30.17,30.12,30.08,10,10,10,12,6,,0.00,3,,78
2013-9-16,88,78,69,75,71,68,100,86,53,30.12,30.09,30.02,10,9,1,15,4,20,0.63,5,Rain,173
2013-9-17,80,72,61,71,59,55,95,65,43,30.25,30.19,30.10,10,10,10,15,10,21,0.00,3,,52
2013-9-18,80,68,56,57,54,52,89,68,42,30.25,30.20,30.13,10,10,10,13,8,18,0.00,0,,54
2013-9-19,83,69,56,62,57,52,86,66,42,30.18,30.13,30.08,10,10,10,6,4,,0.00,1,,70
2013-9-20,87,75,63,67,64,60,95,73,44,30.08,30.02,29.93,10,10,10,9,3,,0.00,3,,188
2013-9-21,85,76,68,72,69,65,100,83,54,29.94,29.77,29.69,10,9,2,15,7,22,0.25,4,Rain,193
2013-9-22,82,73,63,72,66,58,100,83,45,29.88,29.73,29.68,10,10,8,18,11,23,0.03,5,Rain,279
2013-9-23,80,68,57,59,56,55,93,71,42,30.04,29.98,29.89,10,10,8,10,5,,0.00,1,,53
2013-9-24,81,68,55,59,56,52,93,69,43,30.07,30.00,29.93,10,10,10,13,5,17,0.00,1,,81
2013-9-25,77,69,62,63,61,56,100,83,49,29.92,29.86,29.82,10,8,2,14,7,,0.97,7,Rain,49
2013-9-26,79,70,60,63,60,53,100,82,44,29.99,29.88,29.85,10,9,2,12,7,,0.15,6,Rain,19
2013-9-27,79,68,58,59,55,53,88,66,42,30.14,30.06,29.99,10,10,10,17,10,20,0.00,0,,36
2013-9-28,77,66,55,56,54,52,89,67,44,30.19,30.15,30.12,10,10,10,20,10,25,0.00,1,,34
2013-9-29,76,66,56,57,53,51,94,68,43,30.14,30.08,30.02,10,10,10,13,7,,0.00,3,,34
2013-9-30,77,66,55,58,54,51,87,70,43,30.09,30.04,29.99,10,10,10,5,2,,0.00,3,,39